PAA12 RJAA-KSFO

Flight info

Callsign PAA12
Flight time N/A
Altitude 33000
Route ROUSY GULBO Y808 NOLAX Y814 AVBET OTR11 LEPKI 38N160E 38N170E/N0493F350 40N180E 43N170W/N0485F370 45N160W 45N150W 43N140W/N0480F390 39N130W DCT DACEM DCT PAINT DCT PIRAT DCT OSI
Aircraft B742/H-SDFHIRWXY/L

Departure

Time 2026-05-01 13:13
Airport Narita International Airport (RJAA)

Arrival

Time N/A
Airport San Francisco International Airport (KSFO)
Time Latitude Longitude Altitude Speed Heading
2026-05-01 11:08 35.76193 140.38370 138 ft 0 kts 59°
2026-05-01 12:47 35.76186 140.38356 138 ft 2 kts 52°
2026-05-01 12:47 35.76176 140.38342 138 ft 2 kts 41°
2026-05-01 12:47 35.76164 140.38330 138 ft 2 kts 33°
2026-05-01 12:47 35.76151 140.38321 138 ft 2 kts 24°
2026-05-01 12:48 35.76137 140.38315 138 ft 2 kts 15°
2026-05-01 12:48 35.76122 140.38312 138 ft 2 kts
2026-05-01 12:48 35.76107 140.38310 138 ft 2 kts 357°
2026-05-01 12:48 35.76092 140.38312 138 ft 2 kts 348°
2026-05-01 12:49 35.76078 140.38318 138 ft 2 kts 339°
2026-05-01 12:49 35.76064 140.38324 138 ft 2 kts 330°
2026-05-01 12:49 35.76051 140.38335 138 ft 2 kts 329°
2026-05-01 12:49 35.76038 140.38344 138 ft 2 kts 330°
2026-05-01 12:50 35.76025 140.38353 138 ft 2 kts 330°
2026-05-01 12:50 35.76012 140.38362 138 ft 2 kts 330°
2026-05-01 12:50 35.76000 140.38370 138 ft 2 kts 330°
2026-05-01 12:50 35.75986 140.38380 138 ft 2 kts 330°
2026-05-01 12:51 35.75982 140.38384 138 ft 1 kts 330°
2026-05-01 12:51 35.75997 140.38371 138 ft 1 kts 327°
2026-05-01 12:51 35.75998 140.38370 138 ft 0 kts 327°
2026-05-01 12:58 35.75999 140.38370 138 ft 0 kts 327°
2026-05-01 12:58 35.76008 140.38364 138 ft 3 kts 327°
2026-05-01 12:59 35.76100 140.38295 138 ft 12 kts 329°
2026-05-01 12:59 35.76183 140.38235 138 ft 15 kts 329°
2026-05-01 12:59 35.76398 140.38081 138 ft 15 kts 330°
2026-05-01 13:00 35.76401 140.37900 138 ft 12 kts 241°
2026-05-01 13:00 35.76409 140.37816 138 ft 0 kts 323°
2026-05-01 13:01 35.76414 140.37811 138 ft 1 kts 336°
2026-05-01 13:01 35.76436 140.37801 138 ft 5 kts 336°
2026-05-01 13:01 35.76569 140.37715 138 ft 15 kts 329°
2026-05-01 13:02 35.76667 140.37642 138 ft 17 kts 327°
2026-05-01 13:07 35.77255 140.37219 138 ft 8 kts 328°
2026-05-01 13:07 35.77314 140.37166 138 ft 12 kts 318°
2026-05-01 13:07 35.77331 140.37062 136 ft 16 kts 239°
2026-05-01 13:08 35.77258 140.36966 132 ft 13 kts 181°
2026-05-01 13:08 35.77208 140.36993 132 ft 0 kts 148°
2026-05-01 13:11 35.77153 140.37035 132 ft 30 kts 148°
2026-05-01 13:12 35.76807 140.37286 132 ft 84 kts 149°
2026-05-01 13:12 35.76151 140.37762 136 ft 132 kts 149°
2026-05-01 13:12 35.75225 140.38432 148 ft 173 kts 151°
2026-05-01 13:12 35.74167 140.39265 408 ft 183 kts 152°
2026-05-01 13:13 35.73086 140.40118 781 ft 187 kts 152°
2026-05-01 13:13 35.72037 140.41016 1314 ft 185 kts 150°
2026-05-01 13:13 35.70969 140.41841 1475 ft 173 kts 178°
2026-05-01 13:13 35.69823 140.42169 1610 ft 175 kts 158°
2026-05-01 13:14 35.68820 140.43132 1669 ft 181 kts 158°
2026-05-01 13:14 35.67696 140.43661 1717 ft 176 kts 161°
2026-05-01 13:14 35.66697 140.44620 1765 ft 183 kts 156°
2026-05-01 13:14 35.65567 140.45187 1799 ft 178 kts 158°
2026-05-01 13:15 35.64587 140.46216 1862 ft 185 kts 152°
2026-05-01 13:15 35.63596 140.47211 2003 ft 185 kts 148°
2026-05-01 13:15 35.62612 140.48221 2134 ft 186 kts 149°
2026-05-01 13:15 35.61615 140.49254 2223 ft 191 kts 149°
2026-05-01 13:16 35.60577 140.50326 2309 ft 198 kts 149°
2026-05-01 13:16 35.59485 140.51443 2398 ft 205 kts 149°
2026-05-01 13:16 35.58405 140.52708 2449 ft 222 kts 124°
2026-05-01 13:17 35.57508 140.58911 2725 ft 264 kts 100°
2026-05-01 13:17 35.57299 140.61246 2809 ft 277 kts 100°
2026-05-01 13:18 35.56889 140.66296 3124 ft 303 kts 97°
2026-05-01 13:18 35.56768 140.68896 3677 ft 301 kts 97°
2026-05-01 13:18 35.56627 140.71513 4070 ft 305 kts 98°
2026-05-01 13:18 35.56459 140.74226 4507 ft 307 kts 99°
2026-05-01 13:19 35.56071 140.76866 4905 ft 303 kts 118°
2026-05-01 13:19 35.54944 140.79050 5323 ft 290 kts 139°
2026-05-01 13:19 35.53550 140.83937 6042 ft 322 kts 83°
2026-05-01 13:20 35.54191 140.86580 6480 ft 324 kts 68°
2026-05-01 13:20 35.54935 140.89226 6868 ft 326 kts 80°
2026-05-01 13:20 35.54973 140.91991 7180 ft 320 kts 109°
2026-05-01 13:21 35.53592 140.97279 8017 ft 323 kts 104°
2026-05-01 13:21 35.53296 141.00114 8480 ft 325 kts 99°
2026-05-01 13:21 35.53053 141.02953 8879 ft 327 kts 101°
2026-05-01 13:21 35.52759 141.05794 9252 ft 329 kts 103°
2026-05-01 13:22 35.52425 141.08664 9696 ft 330 kts 103°
2026-05-01 13:22 35.52081 141.11514 10056 ft 333 kts 103°
2026-05-01 13:22 35.51730 141.14410 10244 ft 343 kts 103°
2026-05-01 13:22 35.51367 141.17404 10453 ft 352 kts 103°
2026-05-01 13:23 35.50996 141.20474 10659 ft 363 kts 103°
2026-05-01 13:23 35.50611 141.23657 10869 ft 374 kts 103°
2026-05-01 13:23 35.50211 141.26952 11081 ft 385 kts 103°
2026-05-01 13:23 35.49799 141.30348 11279 ft 397 kts 103°
2026-05-01 13:24 35.49372 141.33859 11482 ft 410 kts 103°
2026-05-01 13:24 35.48935 141.37444 11684 ft 422 kts 103°
2026-05-01 13:24 35.48486 141.41118 12053 ft 429 kts 103°
2026-05-01 13:25 35.47592 141.48457 13181 ft 431 kts 103°
2026-05-01 13:25 35.47134 141.52182 13632 ft 435 kts 103°
2026-05-01 13:25 35.46673 141.55910 14115 ft 438 kts 104°
2026-05-01 13:25 35.46210 141.59653 14582 ft 441 kts 104°
2026-05-01 13:26 35.45745 141.63417 15072 ft 443 kts 104°
2026-05-01 13:26 35.45277 141.67172 15519 ft 444 kts 105°
2026-05-01 13:26 35.44807 141.70947 15996 ft 446 kts 105°
2026-05-01 13:26 35.44350 141.74794 16386 ft 451 kts 103°
2026-05-01 13:27 35.44141 141.78719 16713 ft 461 kts 98°
2026-05-01 13:27 35.44115 141.82758 17165 ft 464 kts 96°
2026-05-01 13:27 35.44160 141.90831 17923 ft 471 kts 97°
2026-05-01 13:28 35.44148 141.98930 18788 ft 473 kts 99°
2026-05-01 13:28 35.44120 142.03003 19173 ft 475 kts 99°
2026-05-01 13:29 35.44053 142.11229 19798 ft 483 kts 99°
2026-05-01 13:29 35.43986 142.19388 20727 ft 482 kts 100°
2026-05-01 13:30 35.43820 142.36401 21932 ft 494 kts 100°
2026-05-01 13:31 35.43749 142.45105 22674 ft 498 kts 98°
2026-05-01 13:31 35.43636 142.58356 23494 ft 502 kts 101°
2026-05-01 13:32 35.43484 142.67223 23922 ft 510 kts 102°
2026-05-01 13:33 35.43303 142.80705 24788 ft 512 kts 101°
2026-05-01 13:33 35.43175 142.89848 25321 ft 514 kts 102°
2026-05-01 13:34 35.43065 142.99060 25616 ft 521 kts 101°
2026-05-01 13:34 35.42926 143.08415 25845 ft 528 kts 102°
2026-05-01 13:35 35.42753 143.17850 26287 ft 531 kts 102°
2026-05-01 13:35 35.42668 143.22554 26555 ft 531 kts 102°
2026-05-01 13:35 35.42892 143.32283 26905 ft 553 kts 89°
2026-05-01 13:36 35.43872 143.37111 27172 ft 564 kts 80°
2026-05-01 13:36 35.45306 143.41943 27218 ft 575 kts 75°
2026-05-01 13:36 35.48726 143.51434 27786 ft 576 kts 73°
2026-05-01 13:37 35.50433 143.56091 27767 ft 582 kts 73°
2026-05-01 13:37 35.52138 143.60851 27911 ft 583 kts 73°
2026-05-01 13:37 35.53788 143.65540 28232 ft 580 kts 75°
2026-05-01 13:37 35.55431 143.70281 28326 ft 582 kts 74°
2026-05-01 13:38 35.58687 143.79759 28738 ft 581 kts 75°
2026-05-01 13:38 35.60297 143.84447 28885 ft 583 kts 75°
2026-05-01 13:39 35.63524 143.93895 28939 ft 589 kts 75°
2026-05-01 13:39 35.65130 143.98595 29186 ft 587 kts 75°
2026-05-01 13:39 35.66714 144.03218 29570 ft 582 kts 75°
2026-05-01 13:39 35.68272 144.07770 29819 ft 581 kts 75°
2026-05-01 13:40 35.69841 144.12375 30051 ft 578 kts 76°
2026-05-01 13:40 35.72936 144.21513 29973 ft 586 kts 75°
2026-05-01 13:40 35.74493 144.26111 30369 ft 581 kts 75°
2026-05-01 13:41 35.76034 144.30661 30437 ft 582 kts 75°
2026-05-01 13:41 35.77590 144.35263 30600 ft 581 kts 76°
2026-05-01 13:41 35.79132 144.39824 30953 ft 576 kts 76°
2026-05-01 13:41 35.80664 144.44368 31078 ft 578 kts 76°
2026-05-01 13:42 35.82189 144.48915 31086 ft 580 kts 76°
2026-05-01 13:42 35.83732 144.53513 31365 ft 577 kts 76°
2026-05-01 13:42 35.85268 144.58099 31267 ft 583 kts 75°
2026-05-01 13:42 35.86809 144.62706 31471 ft 580 kts 76°
2026-05-01 13:43 35.88326 144.67230 31843 ft 575 kts 76°
2026-05-01 13:43 35.89840 144.71747 32232 ft 570 kts 76°
2026-05-01 13:43 35.91336 144.76230 32480 ft 568 kts 76°
2026-05-01 13:44 35.94345 144.85306 32509 ft 573 kts 76°
2026-05-01 13:44 35.97355 144.94389 32505 ft 573 kts 76°
2026-05-01 13:45 36.00333 145.03394 32504 ft 569 kts 76°
2026-05-01 13:45 36.03311 145.12427 32513 ft 569 kts 76°
2026-05-01 13:46 36.06271 145.21448 32512 ft 571 kts 76°
2026-05-01 13:46 36.09253 145.30539 32519 ft 569 kts 76°
2026-05-01 13:47 36.12221 145.39616 32521 ft 564 kts 76°
2026-05-01 13:47 36.14995 145.48813 32524 ft 561 kts 82°
2026-05-01 13:48 36.17014 145.58125 32525 ft 558 kts 84°
2026-05-01 13:48 36.18863 145.67433 32527 ft 554 kts 85°
2026-05-01 13:49 36.20760 145.76749 32540 ft 553 kts 84°
2026-05-01 13:49 36.22667 145.85960 32542 ft 551 kts 84°
2026-05-01 13:50 36.24568 145.95137 32546 ft 550 kts 84°
2026-05-01 13:50 36.26456 146.04323 32547 ft 553 kts 84°
2026-05-01 13:51 36.28360 146.13614 32545 ft 554 kts 83°
2026-05-01 13:51 36.30244 146.22835 32548 ft 552 kts 83°
2026-05-01 13:52 36.32114 146.32042 32554 ft 556 kts 83°
2026-05-01 13:52 36.34002 146.41377 32556 ft 554 kts 83°
2026-05-01 13:53 36.35868 146.50632 32560 ft 553 kts 83°
2026-05-01 13:53 36.38647 146.64505 32558 ft 553 kts 83°
2026-05-01 13:54 36.40509 146.73846 32563 ft 552 kts 83°
2026-05-01 13:54 36.42342 146.83093 32565 ft 553 kts 83°
2026-05-01 13:55 36.44183 146.92418 32576 ft 554 kts 83°
2026-05-01 13:55 36.46006 147.01680 32568 ft 554 kts 83°
2026-05-01 13:56 36.47818 147.10922 32569 ft 552 kts 82°
2026-05-01 13:56 36.49625 147.20209 32586 ft 555 kts 82°
2026-05-01 13:57 36.51431 147.29517 32583 ft 556 kts 82°
2026-05-01 13:57 36.53239 147.38863 32597 ft 553 kts 82°
2026-05-01 13:58 36.55018 147.48109 32610 ft 554 kts 81°
2026-05-01 13:58 36.56801 147.57431 32607 ft 557 kts 82°
2026-05-01 13:59 36.58586 147.66797 32601 ft 557 kts 82°
2026-05-01 13:59 36.60362 147.76143 32616 ft 554 kts 82°
2026-05-01 14:00 36.62123 147.85474 32619 ft 556 kts 82°
2026-05-01 14:00 36.63891 147.94882 32643 ft 557 kts 82°
2026-05-01 14:01 36.65642 148.04240 32648 ft 557 kts 82°
2026-05-01 14:01 36.67382 148.13583 32654 ft 556 kts 81°
2026-05-01 14:02 36.69125 148.22986 32656 ft 556 kts 81°
2026-05-01 14:02 36.70846 148.32303 32662 ft 554 kts 81°
2026-05-01 14:03 36.72567 148.41676 32671 ft 555 kts 81°
2026-05-01 14:03 36.74278 148.51044 32684 ft 556 kts 81°
2026-05-01 14:04 36.75990 148.60446 32692 ft 553 kts 81°
2026-05-01 14:04 36.77691 148.69830 32686 ft 553 kts 82°
2026-05-01 14:05 36.79372 148.79170 32699 ft 554 kts 82°
2026-05-01 14:05 36.81058 148.88568 32708 ft 554 kts 82°
2026-05-01 14:06 36.82733 148.97952 32724 ft 552 kts 82°
2026-05-01 14:06 36.84393 149.07297 32734 ft 552 kts 82°
2026-05-01 14:07 36.86047 149.16663 32743 ft 552 kts 82°
2026-05-01 14:08 36.88504 149.30649 32738 ft 553 kts 82°
2026-05-01 14:08 36.90149 149.40076 32744 ft 553 kts 81°
2026-05-01 14:09 36.91782 149.49477 32752 ft 555 kts 81°
2026-05-01 14:09 36.93410 149.58894 32744 ft 555 kts 81°
2026-05-01 14:10 36.95032 149.68311 32747 ft 554 kts 82°
2026-05-01 14:10 36.96662 149.77840 32770 ft 557 kts 82°
2026-05-01 14:11 36.98278 149.87331 32783 ft 556 kts 82°
2026-05-01 14:11 37.00632 150.01417 32790 ft 554 kts 82°
2026-05-01 14:12 37.02014 150.10902 32799 ft 557 kts 83°
2026-05-01 14:12 37.03344 150.20406 32808 ft 553 kts 83°
2026-05-01 14:13 37.04669 150.29843 32820 ft 556 kts 83°
2026-05-01 14:13 37.06013 150.39377 32829 ft 559 kts 83°
2026-05-01 14:14 37.07351 150.48910 32850 ft 558 kts 83°
2026-05-01 14:14 37.08680 150.58437 32853 ft 558 kts 83°
2026-05-01 14:15 37.10004 150.67990 32863 ft 559 kts 83°
2026-05-01 14:15 37.11321 150.77556 32870 ft 559 kts 83°
2026-05-01 14:16 37.12628 150.87112 32882 ft 560 kts 83°
2026-05-01 14:16 37.13927 150.96661 32892 ft 560 kts 84°
2026-05-01 14:17 37.15223 151.06255 32890 ft 558 kts 84°
2026-05-01 14:17 37.16502 151.15787 32906 ft 560 kts 83°
2026-05-01 14:18 37.17792 151.25459 32917 ft 563 kts 83°
2026-05-01 14:18 37.19065 151.35053 32921 ft 560 kts 83°
2026-05-01 14:19 37.20332 151.44673 32934 ft 562 kts 83°
2026-05-01 14:19 37.21600 151.54352 32938 ft 560 kts 83°
2026-05-01 14:20 37.23472 151.68793 32950 ft 563 kts 83°
2026-05-01 14:21 37.24715 151.78436 32957 ft 559 kts 84°
2026-05-01 14:21 37.25944 151.88052 32963 ft 560 kts 83°
2026-05-01 14:22 37.27779 152.02531 32977 ft 562 kts 83°
2026-05-01 14:22 37.28990 152.12157 32980 ft 561 kts 84°
2026-05-01 14:23 37.30204 152.21874 32981 ft 562 kts 83°
2026-05-01 14:23 37.31400 152.31519 32988 ft 562 kts 83°
2026-05-01 14:24 37.32599 152.41254 32993 ft 563 kts 83°
2026-05-01 14:24 37.33781 152.50926 32997 ft 563 kts 83°
2026-05-01 14:25 37.34964 152.60654 33003 ft 562 kts 83°
2026-05-01 14:25 37.36128 152.70299 33015 ft 561 kts 84°
2026-05-01 14:26 37.37871 152.84882 33023 ft 564 kts 84°
2026-05-01 14:27 37.39021 152.94582 33032 ft 561 kts 84°
2026-05-01 14:27 37.40167 153.04327 33031 ft 564 kts 83°
2026-05-01 14:28 37.41875 153.18988 33046 ft 563 kts 83°
2026-05-01 14:28 37.43012 153.28832 33057 ft 565 kts 84°
2026-05-01 14:29 37.44153 153.38794 33057 ft 566 kts 83°
2026-05-01 14:30 37.46410 153.58710 33069 ft 567 kts 83°
2026-05-01 14:31 37.48072 153.73575 33072 ft 566 kts 84°
2026-05-01 14:31 37.49163 153.83449 33073 ft 568 kts 84°
2026-05-01 14:32 37.50259 153.93417 33083 ft 568 kts 84°
2026-05-01 14:32 37.51344 154.03372 33089 ft 567 kts 84°
2026-05-01 14:33 37.52430 154.13425 33097 ft 570 kts 84°
2026-05-01 14:33 37.53497 154.23383 33102 ft 571 kts 83°
2026-05-01 14:34 37.54561 154.33383 33109 ft 568 kts 84°
2026-05-01 14:34 37.55609 154.43343 33122 ft 570 kts 84°
2026-05-01 14:35 37.56653 154.53317 33118 ft 570 kts 83°
2026-05-01 14:35 37.57689 154.63304 33127 ft 571 kts 83°
2026-05-01 14:36 37.58734 154.73467 33136 ft 571 kts 83°
2026-05-01 14:36 37.59755 154.83485 33138 ft 573 kts 83°
2026-05-01 14:37 37.60778 154.93611 33152 ft 573 kts 83°
2026-05-01 14:37 37.61785 155.03657 33154 ft 573 kts 83°
2026-05-01 14:38 37.62782 155.13676 33162 ft 573 kts 83°
2026-05-01 14:38 37.63768 155.23691 33161 ft 571 kts 83°
2026-05-01 14:39 37.64747 155.33739 33170 ft 573 kts 83°
2026-05-01 14:39 37.65722 155.43825 33176 ft 575 kts 83°
2026-05-01 14:40 37.66692 155.53943 33177 ft 573 kts 83°
2026-05-01 14:40 37.67646 155.64000 33185 ft 572 kts 83°
2026-05-01 14:41 37.68605 155.74176 33187 ft 574 kts 83°
2026-05-01 14:41 37.69544 155.84259 33193 ft 575 kts 83°
2026-05-01 14:42 37.70473 155.94324 33201 ft 575 kts 83°
2026-05-01 14:42 37.71396 156.04410 33200 ft 573 kts 83°
2026-05-01 14:43 37.72306 156.14459 33207 ft 575 kts 83°
2026-05-01 14:43 37.73211 156.24565 33213 ft 576 kts 83°
2026-05-01 14:44 37.74105 156.34622 33211 ft 573 kts 83°
2026-05-01 14:44 37.75420 156.49612 33217 ft 575 kts 83°
2026-05-01 14:45 37.76729 156.64763 33224 ft 574 kts 82°
2026-05-01 14:46 37.77602 156.74980 33227 ft 575 kts 83°
2026-05-01 14:46 37.78874 156.90085 33236 ft 575 kts 83°
2026-05-01 14:47 37.79714 157.00183 33234 ft 574 kts 83°
2026-05-01 14:48 37.80954 157.15300 33241 ft 576 kts 83°
2026-05-01 14:48 37.82162 157.30283 33246 ft 574 kts 82°
2026-05-01 14:49 37.83761 157.50436 33252 ft 573 kts 82°
2026-05-01 14:50 37.85315 157.70464 33252 ft 572 kts 83°
2026-05-01 14:51 37.86458 157.85524 33258 ft 572 kts 83°
2026-05-01 14:52 37.87579 158.00513 33256 ft 574 kts 83°
2026-05-01 14:53 37.88679 158.15521 33249 ft 571 kts 82°
2026-05-01 14:53 37.89404 158.25540 33252 ft 572 kts 83°
2026-05-01 14:54 37.90125 158.35602 33259 ft 575 kts 82°
2026-05-01 14:54 37.90835 158.45676 33261 ft 572 kts 82°
2026-05-01 14:55 37.91533 158.55702 33268 ft 569 kts 82°
2026-05-01 14:55 37.92218 158.65630 33274 ft 568 kts 83°
2026-05-01 14:56 37.92900 158.75653 33276 ft 565 kts 83°
2026-05-01 14:56 37.93567 158.85570 33282 ft 566 kts 82°
2026-05-01 14:57 37.94226 158.95502 33281 ft 567 kts 82°
2026-05-01 14:57 37.95201 159.10443 33287 ft 568 kts 82°
2026-05-01 14:58 37.95838 159.20364 33287 ft 568 kts 82°
2026-05-01 14:58 37.96472 159.30357 33292 ft 570 kts 82°
2026-05-01 14:59 37.97098 159.40382 33290 ft 568 kts 82°
2026-05-01 14:59 37.97713 159.50409 33296 ft 566 kts 81°
2026-05-01 15:00 37.98618 159.65317 33304 ft 568 kts 82°
2026-05-01 15:01 37.99216 159.75360 33304 ft 569 kts 82°
2026-05-01 15:01 37.99803 159.85364 33306 ft 570 kts 82°
2026-05-01 15:02 38.00382 159.95390 33305 ft 568 kts 82°
2026-05-01 15:02 38.00888 160.05321 33306 ft 567 kts 83°
2026-05-01 15:03 38.01295 160.15321 33305 ft 570 kts 83°
2026-05-01 15:03 38.01693 160.25409 33311 ft 572 kts 83°
2026-05-01 15:04 38.02092 160.35466 33313 ft 573 kts 83°
2026-05-01 15:04 38.02483 160.45488 33313 ft 571 kts 83°
2026-05-01 15:05 38.02872 160.55588 33315 ft 571 kts 83°
2026-05-01 15:05 38.03251 160.65645 33314 ft 573 kts 84°
2026-05-01 15:06 38.03625 160.75825 33321 ft 575 kts 84°
2026-05-01 15:06 38.03988 160.85969 33324 ft 576 kts 84°
2026-05-01 15:07 38.04341 160.96123 33324 ft 575 kts 84°
2026-05-01 15:07 38.04685 161.06221 33327 ft 576 kts 83°
2026-05-01 15:08 38.05021 161.16350 33328 ft 575 kts 84°
2026-05-01 15:08 38.05349 161.26471 33329 ft 576 kts 83°
2026-05-01 15:09 38.05668 161.36661 33332 ft 573 kts 83°
2026-05-01 15:09 38.05979 161.46764 33330 ft 574 kts 83°
2026-05-01 15:10 38.06282 161.56928 33327 ft 575 kts 83°
2026-05-01 15:10 38.06714 161.72055 33327 ft 572 kts 84°
2026-05-01 15:11 38.07131 161.87201 33327 ft 574 kts 84°
2026-05-01 15:12 38.07396 161.97287 33328 ft 575 kts 84°
2026-05-01 15:12 38.07776 162.12398 33327 ft 572 kts 84°
2026-05-01 15:14 38.08371 162.37707 33328 ft 570 kts 84°
2026-05-01 15:14 38.08701 162.52803 33336 ft 573 kts 83°
2026-05-01 15:15 38.09112 162.73018 33339 ft 572 kts 84°
2026-05-01 15:16 38.09489 162.93124 33347 ft 575 kts 84°
2026-05-01 15:18 38.09908 163.18494 33348 ft 574 kts 84°
2026-05-01 15:19 38.10210 163.38702 33339 ft 577 kts 84°
2026-05-01 15:19 38.10409 163.53931 33345 ft 575 kts 84°
2026-05-01 15:20 38.10591 163.69148 33357 ft 574 kts 84°
2026-05-01 15:21 38.10703 163.79275 33364 ft 577 kts 84°
2026-05-01 15:21 38.10804 163.89436 33367 ft 577 kts 84°
2026-05-01 15:22 38.10939 164.04651 33358 ft 575 kts 84°
2026-05-01 15:22 38.11023 164.14806 33350 ft 579 kts 84°
2026-05-01 15:23 38.11092 164.24973 33352 ft 578 kts 84°
2026-05-01 15:23 38.11152 164.35118 33356 ft 576 kts 84°
2026-05-01 15:24 38.11208 164.45261 33355 ft 579 kts 84°
2026-05-01 15:24 38.11256 164.55537 33352 ft 582 kts 84°
2026-05-01 15:25 38.11290 164.65749 33349 ft 580 kts 85°
2026-05-01 15:25 38.11315 164.76056 33346 ft 579 kts 84°
2026-05-01 15:26 38.11337 164.86276 33336 ft 583 kts 85°
2026-05-01 15:26 38.11346 164.96750 33346 ft 585 kts 84°
2026-05-01 15:27 38.11344 165.07097 33348 ft 583 kts 85°
2026-05-01 15:28 38.11328 165.22522 33345 ft 584 kts 85°
2026-05-01 15:28 38.11309 165.32944 33348 ft 588 kts 84°
2026-05-01 15:29 38.11256 165.48596 33346 ft 587 kts 84°
2026-05-01 15:30 38.11157 165.69424 33343 ft 588 kts 85°
2026-05-01 15:31 38.10934 166.00783 33365 ft 589 kts 84°
2026-05-01 15:32 38.10746 166.21584 33366 ft 590 kts 84°
2026-05-01 15:34 38.10389 166.52867 33364 ft 593 kts 84°